Regional Weather Roundup
Issued by NWS Raleigh/Durham, NC

Home | Current Version | Previous Version | Text Only | Print | Product List | Glossary On
Versions: 1 2 3 4 5 6 7 8 9 10 11 12 13 14 15 16 17 18 19 20 21 22 23 24 25 26 27
000
ASUS42 KRAH 241310
RWRRAH
NORTH CAROLINA WEATHER ROUNDUP
NATIONAL WEATHER SERVICE RALEIGH NC
800 AM EST FRI NOV 24 2017

NOTE: "FAIR" INDICATES FEW OR NO CLOUDS BELOW 12,000 FEET WITH NO
SIGNIFICANT WEATHER AND/OR OBSTRUCTIONS TO VISIBILITY.

NCZ001-053-055-056-065-067-241400-
WESTERN NORTH CAROLINA

CITY           SKY/WX    TMP DP  RH WIND       PRES   REMARKS
ASHEVILLE      CLEAR     29  28  96 CALM      30.04R
JEFFERSON      CLOUDY    33  29  85 CALM      30.00R
MORGANTON      CLEAR     28  27  99 CALM      30.07S
HICKORY        CLEAR     31  30  96 CALM      30.04R
RUTHERFORDTON  CLEAR     29  29  99 CALM      30.06S
MOUNT AIRY     CLEAR     29  25  84 CALM      30.05S
BOONE          CLEAR     28  28 100 CALM      30.01R FOG
$$

NCZ021-022-025-041-071-084-088-241400-
CENTRAL NORTH CAROLINA

CITY           SKY/WX    TMP DP  RH WIND       PRES   REMARKS
CHARLOTTE      CLEAR     33  32  96 E3        30.07S
GREENSBORO     CLEAR     30  28  92 S3        30.05S
WINSTON-SALEM  CLEAR     30  27  88 CALM      30.05F
RALEIGH-DURHAM PTCLDY    29  28  96 CALM      30.10R
FORT BRAGG     CLEAR     33  31  92 N3        30.07R
FAYETTEVILLE   SUNNY     34  33  96 N8        30.07R WCI  27
BURLINGTON     CLOUDY    28  27  96 CALM      30.07S
LAURINBURG     CLEAR     33  31  92 N6        30.08R WCI  28
$$

NCZ011-015-027-028-043-044-047-080-103-241400-
NORTHEASTERN NORTH CAROLINA

CITY           SKY/WX    TMP DP  RH WIND       PRES   REMARKS
ROCKY MT-WILSO SUNNY     30  30 100 CALM      30.11R FOG
GREENVILLE     SUNNY     28  28 100 N3        30.10S
WASHINGTON     SUNNY     32  30  92 CALM      30.08S
ELIZABETH CITY SUNNY     39  33  79 N10       30.09R WCI  32
MANTEO         CLOUDY    47  39  74 NE8       30.07S
CAPE HATTERAS  CLOUDY    52  46  80 NE9       30.03S
$$

NCZ078-087-090-091-093-098-101-241400-
SOUTHEASTERN NORTH CAROLINA

CITY           SKY/WX    TMP DP  RH WIND       PRES   REMARKS
LUMBERTON      SUNNY     35  34  96 NE8       30.06R WCI  29
GOLDSBORO      SUNNY     35  31  85 NW3       30.07R
KINSTON        SUNNY     32  32 100 CALM      30.09R
KENANSVILLE    MOSUNNY   32  30  93 N3        30.07R
NEW BERN       SUNNY     37  35  92 N7        30.08R WCI  32
CHERRY POINT     N/A     43  37  79 NE12      30.06R
BEAUFORT       PTSUNNY   46  40  79 N10       30.03S
JACKSONVILLE   MOSUNNY   38  35  89 N9        30.05R WCI  31
WILMINGTON     MOSUNNY   41  35  79 NE13      30.03R
$$





USA.gov is the U.S. government's official web portal to all federal, state and local government web resources and services.